Volver al catálogo

DROID.002

ActivoCienciaSSO
NORAD 63223·PAYLOAD·🇺🇸 United States

Lanzado Mar 15, 2025 desde Vandenberg Space Force Base

Loading…

Próximos Pases (próximas 24 horas)

TLE

ActualizadoSource: Space-Track

Época: Sep 14, 2026, 13:06 UTC

1 63223U 25052P   26257.54585608  .00004347  00000-0  18488-3 0  9993
2 63223  97.3791 148.9745 0004247 155.1215 205.0228 15.23536706 83478

Sigue DROID.002 en tiempo real con AllMySat

Download on the App Store